Location: Brachbach
(49.1847°N, 9.7240°E)
Time: 01:50:35
(UTC+00:00)

ARIANE 6 FM1 Upper Stage - Pass Details

Date: 30 January 2026
Orbit: 522 x 609 km, 62.0° (Epoch: 13 February)

Event Time Altitude Azimuth Distance (km) Brightness Sun altitude
Rises 19:14:21 0° 292° (WNW) 2,679 7.2 -29.4°
Reaches altitude 10° 19:17:31 10° 319° (NW) 1,778 5.8 -29.9°
Enters shadow 19:18:37 13° 334° (NNW) 1,601 5.3 -30.1°
